Hayward, WI

6:26 PM CST on February 18, 2018 (GMT -0600)
Sawyer County

Weather History for KHYR - November, 2011

Change the Weather History Date:

Monday, November 14, 2011

  Actual Average Record
Temperature  
Mean Temperature 39 °F -  
Max Temperature 50 °F 38 °F 59 °F (2001)
Min Temperature 28 °F 22 °F -2 °F (1996)
Degree Days  
Heating Degree Days 26    
Moisture  
Dew Point 28 °F    
Average Humidity 61    
Maximum Humidity 92    
Minimum Humidity 44    
Precipitation  
Precipitation 0.00 in - - ()
Sea Level Pressure  
Sea Level Pressure 29.47 in    
Wind  
Wind Speed 4 mph (SW)    
Max Wind Speed 13 mph    
Max Gust Speed 21 mph    
Visibility 10 miles    
Events Rain    
Averages and records for this station are not official NWS values.
T = Trace of Precipitation, MM = Missing Value Source: NWS Daily Summary

Daily Weather History Graph

Daily Weather History Graph

Search for Another Location

Airport or City:

Trip Planner

Search our weather history database for the weather conditions in past years. The results will help you decide how hot, cold, wet, or windy it might be!

Date:

Astronomy

Nov. 14, 2011 Rise Set
Actual Time 7:04 AM CST 4:35 PM CST
Civil Twilight 6:32 AM CST 5:07 PM CST
Nautical Twilight 5:55 AM CST 5:43 PM CST
Astronomical Twilight 5:20 AM CST 6:18 PM CST
Moon 7:38 PM CST (11/14) 10:27 AM CST (11/14)
Length of Visible Light 10h 35m
Length of Day
9h 30m
Waning Gibbous, 86% of the Moon is Illuminated
Nov 14
Waning Gibbous
Nov 18
Last Quarter
Nov 25
New
Dec 2
First Quarter
Dec 10
Full

Hourly Weather History & Observations

Time (CST) Temp. Windchill Dew Point Humidity Pressure Visibility Wind Dir Wind Speed Gust Speed Precip Events Conditions
12:53 AM 30.9 °F - 28.0 °F 89% 29.46 in 8.0 mi Calm Calm - N/A   Clear
1:53 AM 34.0 °F 31.0 °F 30.0 °F 85% 29.46 in 9.0 mi SSW 3.5 mph - N/A   Clear
2:53 AM 28.9 °F - 27.0 °F 92% 29.46 in 9.0 mi Calm Calm - N/A   Clear
6:53 AM 35.1 °F - 28.9 °F 78% 29.44 in 10.0 mi Calm Calm - N/A   Scattered Clouds
7:53 AM 37.0 °F 33.3 °F 28.9 °F 73% 29.43 in 10.0 mi South 4.6 mph - N/A   Scattered Clouds
8:53 AM 42.1 °F 37.1 °F 28.0 °F 58% 29.44 in 10.0 mi SSW 8.1 mph 17.3 mph N/A   Overcast
9:53 AM 43.0 °F 39.5 °F 28.0 °F 56% 29.44 in 10.0 mi SW 5.8 mph - N/A   Overcast
10:53 AM 44.1 °F 42.5 °F 28.0 °F 53% 29.44 in 10.0 mi Variable 3.5 mph - N/A   Overcast
11:53 AM 45.0 °F 41.8 °F 28.9 °F 53% 29.41 in 10.0 mi Variable 5.8 mph - N/A   Overcast
12:53 PM 46.9 °F - 28.9 °F 50% 29.42 in 10.0 mi Variable 6.9 mph - N/A   Overcast
1:53 PM 48.9 °F - 28.9 °F 46% 29.40 in 10.0 mi Variable 3.5 mph - N/A   Partly Cloudy
2:53 PM 50.0 °F - 28.9 °F 44% 29.41 in 10.0 mi WSW 12.7 mph 20.7 mph N/A   Clear
3:53 PM 48.0 °F - 27.0 °F 44% 29.43 in 10.0 mi WSW 8.1 mph - N/A   Clear
4:53 PM 46.0 °F 41.4 °F 26.1 °F 46% 29.45 in 10.0 mi WSW 9.2 mph - N/A   Clear
5:53 PM 44.1 °F 40.1 °F 26.1 °F 49% 29.48 in 10.0 mi SW 6.9 mph - N/A   Clear
6:53 PM 42.1 °F 40.2 °F 25.0 °F 51% 29.50 in 10.0 mi SW 3.5 mph - N/A   Partly Cloudy
7:53 PM 42.1 °F 39.2 °F 26.1 °F 53% 29.53 in 10.0 mi SW 4.6 mph - 0.00 in Rain Light Rain
8:53 PM 39.9 °F 37.8 °F 25.0 °F 55% 29.55 in 10.0 mi SW 3.5 mph - 0.00 in   Scattered Clouds
9:53 PM 37.9 °F 33.5 °F 27.0 °F 65% 29.59 in 10.0 mi Variable 5.8 mph - N/A   Scattered Clouds
11:53 PM 28.9 °F - 26.1 °F 89% 29.63 in 10.0 mi Calm Calm - N/A   Clear